Time,TemperatureF,DewpointF,PressureIn,WindDirection,WindDirectionDegrees,WindSpeedMPH,WindSpeedGustMPH,Humidity,HourlyPrecipIn,Conditions,Clouds,dailyrainin,SoftwareType,DateUTC
2013-02-10 00:00:00,33.3,5.9,30.35,SSE,159,0.0,0.0,31,0.00,,,0.00,VWS V14.00,2013-02-10 05:00:00,
2013-02-10 00:01:00,33.3,5.9,30.35,SSE,159,0.0,0.0,31,0.00,,,0.00,VWS V14.00,2013-02-10 05:01:00,
2013-02-10 00:06:00,32.7,5.4,30.35,SSE,159,0.0,0.0,31,0.00,,,0.00,VWS V14.00,2013-02-10 05:06:00,
2013-02-10 00:11:00,32.4,5.1,30.35,SSE,159,0.0,0.0,31,0.00,,,0.00,VWS V14.00,2013-02-10 05:11:00,
2013-02-10 00:16:00,32.0,4.8,30.35,SSE,159,0.0,0.0,31,0.00,,,0.00,VWS V14.00,2013-02-10 05:16:00,
2013-02-10 00:21:00,31.5,5.0,30.35,SSE,159,0.0,0.0,32,0.00,,,0.00,VWS V14.00,2013-02-10 05:21:00,
2013-02-10 00:26:00,31.5,6.3,30.35,SSE,159,0.0,0.0,34,0.00,,,0.00,VWS V14.00,2013-02-10 05:26:00,
2013-02-10 00:31:00,31.3,7.4,30.35,SSE,159,0.0,0.0,36,0.00,,,0.00,VWS V14.00,2013-02-10 05:31:00,
2013-02-10 00:36:00,30.7,7.0,30.35,SSE,159,0.0,0.0,36,0.00,,,0.00,VWS V14.00,2013-02-10 05:36:00,
2013-02-10 00:41:00,30.6,6.8,30.35,SSE,159,0.0,0.0,36,0.00,,,0.00,VWS V14.00,2013-02-10 05:41:00,
2013-02-10 00:46:00,30.7,6.3,30.35,SSE,159,0.0,0.0,35,0.00,,,0.00,VWS V14.00,2013-02-10 05:46:00,
2013-02-10 00:51:00,30.7,5.7,30.35,SSE,159,0.0,0.0,34,0.00,,,0.00,VWS V14.00,2013-02-10 05:51:00,
2013-02-10 00:56:00,31.1,5.4,30.35,SSE,159,0.0,0.0,33,0.00,,,0.00,VWS V14.00,2013-02-10 05:56:00,
2013-02-10 01:01:00,31.8,5.3,30.35,SSE,159,0.0,0.0,32,0.00,,,0.00,VWS V14.00,2013-02-10 06:01:00,
2013-02-10 01:06:00,32.4,5.1,30.35,SSE,159,0.0,0.0,31,0.00,,,0.00,VWS V14.00,2013-02-10 06:06:00,
2013-02-10 01:11:00,32.4,5.1,30.35,SSE,159,0.0,0.0,31,0.00,,,0.00,VWS V14.00,2013-02-10 06:11:00,
2013-02-10 01:16:00,32.0,5.5,30.35,SSE,159,0.0,0.0,32,0.00,,,0.00,VWS V14.00,2013-02-10 06:16:00,
2013-02-10 01:21:00,31.8,6.0,30.35,SSE,159,0.0,0.0,33,0.00,,,0.00,VWS V14.00,2013-02-10 06:21:00,
2013-02-10 01:26:00,31.8,5.3,30.35,SSE,159,0.0,0.0,32,0.00,,,0.00,VWS V14.00,2013-02-10 06:26:00,
2013-02-10 01:31:00,31.5,5.7,30.35,SSE,159,0.0,0.0,33,0.00,,,0.00,VWS V14.00,2013-02-10 06:31:00,
2013-02-10 01:36:00,30.9,6.5,30.35,SSE,159,0.0,0.0,35,0.00,,,0.00,VWS V14.00,2013-02-10 06:36:00,
2013-02-10 01:41:00,30.6,6.8,30.35,SSE,159,0.0,0.0,36,0.00,,,0.00,VWS V14.00,2013-02-10 06:41:00,
2013-02-10 01:47:00,30.4,6.6,30.35,SSE,159,0.0,0.0,36,0.00,,,0.00,VWS V14.00,2013-02-10 06:47:00,
2013-02-10 01:52:00,30.2,6.5,30.35,SSE,159,0.0,0.0,36,0.00,,,0.00,VWS V14.00,2013-02-10 06:52:00,
2013-02-10 01:57:00,29.8,6.2,30.35,SSE,159,0.0,0.0,36,0.00,,,0.00,VWS V14.00,2013-02-10 06:57:00,
2013-02-10 02:02:00,30.2,5.2,30.35,SSE,159,0.0,0.0,34,0.00,,,0.00,VWS V14.00,2013-02-10 07:02:00,
2013-02-10 02:07:00,30.4,4.7,30.35,SSE,159,0.0,0.0,33,0.00,,,0.00,VWS V14.00,2013-02-10 07:07:00,
2013-02-10 02:12:00,30.9,4.5,30.35,SSE,159,0.0,0.0,32,0.00,,,0.00,VWS V14.00,2013-02-10 07:12:00,
2013-02-10 02:17:00,30.9,4.5,30.35,SSE,159,0.0,0.0,32,0.00,,,0.00,VWS V14.00,2013-02-10 07:17:00,
2013-02-10 02:22:00,31.3,4.9,30.37,SSE,159,0.0,0.0,32,0.00,,,0.00,VWS V14.00,2013-02-10 07:22:00,
2013-02-10 02:27:00,31.3,4.9,30.37,SSE,159,0.0,0.0,32,0.00,,,0.00,VWS V14.00,2013-02-10 07:27:00,
2013-02-10 02:32:00,30.9,5.2,30.37,SSE,159,0.0,0.0,33,0.00,,,0.00,VWS V14.00,2013-02-10 07:32:00,
2013-02-10 02:37:00,30.6,6.2,30.37,SSE,159,0.0,0.0,35,0.00,,,0.00,VWS V14.00,2013-02-10 07:37:00,
2013-02-10 02:42:00,30.2,7.1,30.37,SSE,159,0.0,0.0,37,0.00,,,0.00,VWS V14.00,2013-02-10 07:42:00,
2013-02-10 02:47:00,30.2,6.5,30.37,SSE,159,0.0,0.0,36,0.00,,,0.00,VWS V14.00,2013-02-10 07:47:00,
2013-02-10 02:52:00,30.2,5.9,30.37,SSE,159,0.0,0.0,35,0.00,,,0.00,VWS V14.00,2013-02-10 07:52:00,
2013-02-10 02:57:00,30.4,5.4,30.37,SSE,159,0.0,0.0,34,0.00,,,0.00,VWS V14.00,2013-02-10 07:57:00,
2013-02-10 03:02:00,30.4,5.4,30.37,SSE,159,0.0,0.0,34,0.00,,,0.00,VWS V14.00,2013-02-10 08:02:00,
2013-02-10 03:07:00,30.2,5.9,30.37,SSE,159,0.0,0.0,35,0.00,,,0.00,VWS V14.00,2013-02-10 08:07:00,
2013-02-10 03:12:00,30.6,5.5,30.37,SSE,159,0.0,0.0,34,0.00,,,0.00,VWS V14.00,2013-02-10 08:12:00,
2013-02-10 03:17:00,30.7,5.7,30.37,SSE,159,0.0,0.0,34,0.00,,,0.00,VWS V14.00,2013-02-10 08:17:00,
2013-02-10 03:22:00,31.1,5.4,30.37,SSE,159,0.0,0.0,33,0.00,,,0.00,VWS V14.00,2013-02-10 08:22:00,
2013-02-10 03:27:00,31.3,5.5,30.37,SSE,159,0.0,0.0,33,0.00,,,0.00,VWS V14.00,2013-02-10 08:27:00,
2013-02-10 03:32:00,31.5,5.0,30.37,SSE,159,0.0,0.0,32,0.00,,,0.00,VWS V14.00,2013-02-10 08:32:00,
2013-02-10 03:37:00,31.1,4.0,30.37,SSE,159,0.0,0.0,31,0.00,,,0.00,VWS V14.00,2013-02-10 08:37:00,
2013-02-10 03:42:00,30.7,3.7,30.37,SSE,159,0.0,0.0,31,0.00,,,0.00,VWS V14.00,2013-02-10 08:42:00,
2013-02-10 03:47:00,30.6,4.2,30.40,SSE,159,0.0,0.0,32,0.00,,,0.00,VWS V14.00,2013-02-10 08:47:00,
2013-02-10 03:52:00,30.2,3.9,30.40,SSE,159,0.0,0.0,32,0.00,,,0.00,VWS V14.00,2013-02-10 08:52:00,
2013-02-10 03:57:00,30.0,3.8,30.40,SSE,159,0.0,0.0,32,0.00,,,0.00,VWS V14.00,2013-02-10 08:57:00,
2013-02-10 04:02:00,30.2,3.9,30.40,SW,220,2.2,2.7,32,0.00,,,0.00,VWS V14.00,2013-02-10 09:02:00,
2013-02-10 04:07:00,30.9,3.8,30.40,SW,220,0.0,0.0,31,0.00,,,0.00,VWS V14.00,2013-02-10 09:07:00,
2013-02-10 04:12:00,31.3,4.2,30.40,SW,220,0.0,0.0,31,0.00,,,0.00,VWS V14.00,2013-02-10 09:12:00,
2013-02-10 04:18:00,31.5,4.3,30.40,SW,220,0.0,0.0,31,0.00,,,0.00,VWS V14.00,2013-02-10 09:18:00,
2013-02-10 04:23:00,30.9,3.8,30.40,SW,220,0.0,0.0,31,0.00,,,0.00,VWS V14.00,2013-02-10 09:23:00,
2013-02-10 04:28:00,30.4,3.4,30.40,SW,220,0.0,0.0,31,0.00,,,0.00,VWS V14.00,2013-02-10 09:28:00,
2013-02-10 04:33:00,30.2,3.2,30.40,SW,220,0.0,0.0,31,0.00,,,0.00,VWS V14.00,2013-02-10 09:33:00,
2013-02-10 04:38:00,30.0,3.1,30.40,SW,220,0.0,0.0,31,0.00,,,0.00,VWS V14.00,2013-02-10 09:38:00,
2013-02-10 04:43:00,30.0,3.1,30.40,SW,220,0.0,0.0,31,0.00,,,0.00,VWS V14.00,2013-02-10 09:43:00,
2013-02-10 04:48:00,29.8,3.6,30.40,SW,220,0.0,0.0,32,0.00,,,0.00,VWS V14.00,2013-02-10 09:48:00,
2013-02-10 04:53:00,29.7,3.4,30.40,SW,220,0.0,0.0,32,0.00,,,0.00,VWS V14.00,2013-02-10 09:53:00,
2013-02-10 04:58:00,29.5,3.3,30.40,SW,220,0.0,0.0,32,0.00,,,0.00,VWS V14.00,2013-02-10 09:58:00,
2013-02-10 05:03:00,29.3,3.1,30.40,SW,220,0.0,0.0,32,0.00,,,0.00,VWS V14.00,2013-02-10 10:03:00,
2013-02-10 05:08:00,29.1,3.0,30.40,SW,220,0.0,0.0,32,0.00,,,0.00,VWS V14.00,2013-02-10 10:08:00,
2013-02-10 05:13:00,28.9,2.8,30.40,SW,220,0.0,0.0,32,0.00,,,0.00,VWS V14.00,2013-02-10 10:13:00,
2013-02-10 05:18:00,28.8,2.6,30.40,SW,220,0.0,0.0,32,0.00,,,0.00,VWS V14.00,2013-02-10 10:18:00,
2013-02-10 05:23:00,28.8,2.6,30.40,SW,220,0.0,0.0,32,0.00,,,0.00,VWS V14.00,2013-02-10 10:23:00,
2013-02-10 05:28:00,28.8,2.6,30.40,SW,220,0.0,0.0,32,0.00,,,0.00,VWS V14.00,2013-02-10 10:28:00,
2013-02-10 05:33:00,28.6,2.5,30.40,SW,220,0.0,0.0,32,0.00,,,0.00,VWS V14.00,2013-02-10 10:33:00,
2013-02-10 05:38:00,28.6,2.5,30.40,SW,220,0.0,0.0,32,0.00,,,0.00,VWS V14.00,2013-02-10 10:38:00,
2013-02-10 05:43:00,28.6,2.5,30.40,SW,220,0.0,0.0,32,0.00,,,0.00,VWS V14.00,2013-02-10 10:43:00,
2013-02-10 05:49:00,28.4,3.0,30.40,SW,220,0.0,0.0,33,0.00,,,0.00,VWS V14.00,2013-02-10 10:49:00,
2013-02-10 05:54:00,28.2,2.8,30.40,SW,220,0.0,0.0,33,0.00,,,0.00,VWS V14.00,2013-02-10 10:54:00,
2013-02-10 05:59:00,28.2,2.8,30.40,SW,220,0.0,0.0,33,0.00,,,0.00,VWS V14.00,2013-02-10 10:59:00,
2013-02-10 06:04:00,28.4,3.0,30.43,SW,220,0.0,0.0,33,0.00,,,0.00,VWS V14.00,2013-02-10 11:04:00,
2013-02-10 06:09:00,28.6,3.1,30.43,SW,220,0.0,0.0,33,0.00,,,0.00,VWS V14.00,2013-02-10 11:09:00,
2013-02-10 06:14:00,28.6,3.1,30.43,SW,220,0.0,0.0,33,0.00,,,0.00,VWS V14.00,2013-02-10 11:14:00,
2013-02-10 06:19:00,28.8,3.3,30.43,SW,220,0.0,0.0,33,0.00,,,0.00,VWS V14.00,2013-02-10 11:19:00,
2013-02-10 06:24:00,28.8,3.3,30.43,SW,220,0.0,0.0,33,0.00,,,0.00,VWS V14.00,2013-02-10 11:24:00,
2013-02-10 06:29:00,28.8,3.9,30.43,SW,220,0.0,0.0,34,0.00,,,0.00,VWS V14.00,2013-02-10 11:29:00,
2013-02-10 06:34:00,28.8,3.3,30.43,SW,220,0.0,0.0,33,0.00,,,0.00,VWS V14.00,2013-02-10 11:34:00,
2013-02-10 06:39:00,28.8,3.9,30.43,SW,220,0.0,0.0,34,0.00,,,0.00,VWS V14.00,2013-02-10 11:39:00,
2013-02-10 06:44:00,28.6,3.8,30.43,SW,220,0.0,0.0,34,0.00,,,0.00,VWS V14.00,2013-02-10 11:44:00,
2013-02-10 06:49:00,28.6,4.4,30.43,SW,220,0.0,0.0,35,0.00,,,0.00,VWS V14.00,2013-02-10 11:49:00,
2013-02-10 06:54:00,28.6,4.4,30.43,SW,220,0.0,0.0,35,0.00,,,0.00,VWS V14.00,2013-02-10 11:54:00,
2013-02-10 06:59:00,28.4,4.2,30.43,SW,220,0.0,0.0,35,0.00,,,0.00,VWS V14.00,2013-02-10 11:59:00,
2013-02-10 07:04:00,28.4,4.2,30.43,SW,220,0.0,0.0,35,0.00,,,0.00,VWS V14.00,2013-02-10 12:04:00,
2013-02-10 07:09:00,28.4,4.2,30.43,SW,220,0.0,0.0,35,0.00,,,0.00,VWS V14.00,2013-02-10 12:09:00,
2013-02-10 07:14:00,28.6,4.4,30.43,SW,220,0.0,0.0,35,0.00,,,0.00,VWS V14.00,2013-02-10 12:14:00,
2013-02-10 07:19:00,28.6,5.0,30.46,SW,220,0.0,0.0,36,0.00,,,0.00,VWS V14.00,2013-02-10 12:19:00,
2013-02-10 07:24:00,28.6,5.0,30.46,SW,220,0.0,0.0,36,0.00,,,0.00,VWS V14.00,2013-02-10 12:24:00,
2013-02-10 07:29:00,28.8,5.8,30.46,SW,220,0.0,0.0,37,0.00,,,0.00,VWS V14.00,2013-02-10 12:29:00,
2013-02-10 07:34:00,28.8,5.8,30.46,SW,220,0.0,0.0,37,0.00,,,0.00,VWS V14.00,2013-02-10 12:34:00,
2013-02-10 07:39:00,29.1,6.1,30.46,SW,220,0.0,0.0,37,0.00,,,0.00,VWS V14.00,2013-02-10 12:39:00,
2013-02-10 07:44:00,29.1,6.1,30.46,SW,220,0.0,0.0,37,0.00,,,0.00,VWS V14.00,2013-02-10 12:44:00,
2013-02-10 07:49:00,29.5,5.8,30.46,SW,220,0.0,0.0,36,0.00,,,0.00,VWS V14.00,2013-02-10 12:49:00,
2013-02-10 07:54:00,29.5,5.8,30.46,SW,220,0.0,0.0,36,0.00,,,0.00,VWS V14.00,2013-02-10 12:54:00,
2013-02-10 07:59:00,29.7,6.0,30.46,SW,220,0.0,0.0,36,0.00,,,0.00,VWS V14.00,2013-02-10 12:59:00,
2013-02-10 08:04:00,30.0,5.7,30.46,SW,220,0.0,0.0,35,0.00,,,0.00,VWS V14.00,2013-02-10 13:04:00,
2013-02-10 08:09:00,30.0,5.7,30.46,SW,220,0.0,0.0,35,0.00,,,0.00,VWS V14.00,2013-02-10 13:09:00,
2013-02-10 08:14:00,30.2,5.9,30.46,SW,220,0.0,0.0,35,0.00,,,0.00,VWS V14.00,2013-02-10 13:14:00,
2013-02-10 08:19:00,30.2,5.9,30.46,SW,220,0.0,0.0,35,0.00,,,0.00,VWS V14.00,2013-02-10 13:19:00,
2013-02-10 08:24:00,30.6,6.2,30.46,SW,220,0.0,0.0,35,0.00,,,0.00,VWS V14.00,2013-02-10 13:24:00,
2013-02-10 08:29:00,30.9,6.5,30.46,SW,220,0.0,0.0,35,0.00,,,0.00,VWS V14.00,2013-02-10 13:29:00,
2013-02-10 08:35:00,31.1,6.0,30.46,SW,220,0.0,0.0,34,0.00,,,0.00,VWS V14.00,2013-02-10 13:35:00,
2013-02-10 08:40:00,31.5,6.3,30.46,SW,220,0.0,0.0,34,0.00,,,0.00,VWS V14.00,2013-02-10 13:40:00,
2013-02-10 08:45:00,32.0,6.2,30.46,SW,220,0.0,0.0,33,0.00,,,0.00,VWS V14.00,2013-02-10 13:45:00,
2013-02-10 08:50:00,32.5,6.6,30.46,SW,220,0.0,0.0,33,0.00,,,0.00,VWS V14.00,2013-02-10 13:50:00,
2013-02-10 08:55:00,32.9,7.0,30.46,SW,220,0.0,0.0,33,0.00,,,0.00,VWS V14.00,2013-02-10 13:55:00,
2013-02-10 09:00:00,33.3,7.3,30.46,SW,220,0.0,0.0,33,0.00,,,0.00,VWS V14.00,2013-02-10 14:00:00,
2013-02-10 09:05:00,33.6,7.6,30.46,SW,220,0.0,0.0,33,0.00,,,0.00,VWS V14.00,2013-02-10 14:05:00,
2013-02-10 09:10:00,33.8,7.1,30.46,SW,220,0.0,0.0,32,0.00,,,0.00,VWS V14.00,2013-02-10 14:10:00,
2013-02-10 09:15:00,34.0,7.2,30.46,SW,220,0.0,0.0,32,0.00,,,0.00,VWS V14.00,2013-02-10 14:15:00,
2013-02-10 09:20:00,34.5,7.7,30.46,SW,222,0.0,0.0,32,0.00,,,0.00,VWS V14.00,2013-02-10 14:20:00,
2013-02-10 09:25:00,34.9,8.0,30.46,NW,325,2.7,3.1,32,0.00,,,0.00,VWS V14.00,2013-02-10 14:25:00,
2013-02-10 09:30:00,35.2,7.7,30.46,NW,325,2.7,4.0,31,0.00,,,0.00,VWS V14.00,2013-02-10 14:30:00,
2013-02-10 09:35:00,35.6,8.0,30.46,NW,325,2.2,2.7,31,0.00,,,0.00,VWS V14.00,2013-02-10 14:35:00,
2013-02-10 09:40:00,35.6,7.2,30.46,NW,325,0.0,0.0,30,0.00,,,0.00,VWS V14.00,2013-02-10 14:40:00,
2013-02-10 09:45:00,35.6,7.2,30.46,NW,325,0.0,0.0,30,0.00,,,0.00,VWS V14.00,2013-02-10 14:45:00,
2013-02-10 09:50:00,35.6,7.2,30.46,NW,325,0.0,0.0,30,0.00,,,0.00,VWS V14.00,2013-02-10 14:50:00,
2013-02-10 09:55:00,35.6,7.2,30.46,NW,324,0.0,2.7,30,0.00,,,0.00,VWS V14.00,2013-02-10 14:55:00,
2013-02-10 10:00:00,35.6,7.2,30.46,NW,325,0.0,0.0,30,0.00,,,0.00,VWS V14.00,2013-02-10 15:00:00,
2013-02-10 10:05:00,36.0,7.6,30.46,NW,325,0.0,0.0,30,0.00,,,0.00,VWS V14.00,2013-02-10 15:05:00,
2013-02-10 10:10:00,36.1,7.7,30.46,NW,325,0.0,0.0,30,0.00,,,0.00,VWS V14.00,2013-02-10 15:10:00,
2013-02-10 10:15:00,36.0,7.6,30.46,NW,304,0.0,2.7,30,0.00,,,0.00,VWS V14.00,2013-02-10 15:15:00,
2013-02-10 10:20:00,36.1,7.7,30.46,WNW,301,2.2,3.6,30,0.00,,,0.00,VWS V14.00,2013-02-10 15:20:00,
2013-02-10 10:25:00,36.3,7.9,30.46,WNW,301,0.0,2.2,30,0.00,,,0.00,VWS V14.00,2013-02-10 15:25:00,
2013-02-10 10:30:00,36.9,8.3,30.46,WNW,301,0.0,0.0,30,0.00,,,0.00,VWS V14.00,2013-02-10 15:30:00,
2013-02-10 10:35:00,37.8,8.4,30.46,NNE,29,3.1,4.0,29,0.00,,,0.00,VWS V14.00,2013-02-10 15:35:00,
2013-02-10 10:40:00,38.1,8.7,30.46,North,350,0.0,0.0,29,0.00,,,0.00,VWS V14.00,2013-02-10 15:40:00,
2013-02-10 10:45:00,38.3,8.8,30.46,NNW,332,2.7,4.9,29,0.00,,,0.00,VWS V14.00,2013-02-10 15:45:00,
2013-02-10 10:50:00,38.5,9.0,30.46,NW,306,0.0,0.0,29,0.00,,,0.00,VWS V14.00,2013-02-10 15:50:00,
2013-02-10 10:55:00,38.8,9.3,30.46,NW,306,0.0,0.0,29,0.00,,,0.00,VWS V14.00,2013-02-10 15:55:00,
2013-02-10 11:00:00,38.8,9.3,30.46,NW,310,0.0,0.0,29,0.00,,,0.00,VWS V14.00,2013-02-10 16:00:00,
2013-02-10 11:05:00,38.7,6.7,30.43,NW,314,0.0,0.0,26,0.00,,,0.00,VWS V14.00,2013-02-10 16:05:00,
2013-02-10 11:10:00,39.0,7.1,30.43,NW,314,0.0,0.0,26,0.00,,,0.00,VWS V14.00,2013-02-10 16:10:00,
2013-02-10 11:16:00,39.6,7.5,30.43,NW,314,0.0,0.0,26,0.00,,,0.00,VWS V14.00,2013-02-10 16:16:00,
2013-02-10 11:21:00,40.3,8.1,30.43,North,357,0.0,0.0,26,0.00,,,0.00,VWS V14.00,2013-02-10 16:21:00,
2013-02-10 11:26:00,40.6,8.4,30.43,North,349,0.0,0.0,26,0.00,,,0.00,VWS V14.00,2013-02-10 16:26:00,
2013-02-10 11:31:00,41.0,8.8,30.43,NNW,335,3.1,3.1,26,0.00,,,0.00,VWS V14.00,2013-02-10 16:31:00,
2013-02-10 11:36:00,41.5,6.5,30.43,NNW,327,0.0,0.0,23,0.00,,,0.00,VWS V14.00,2013-02-10 16:36:00,
2013-02-10 11:41:00,42.3,5.1,30.43,NNW,327,0.0,0.0,21,0.00,,,0.00,VWS V14.00,2013-02-10 16:41:00,
2013-02-10 11:46:00,42.8,4.5,30.43,North,353,2.2,2.7,20,0.00,,,0.00,VWS V14.00,2013-02-10 16:46:00,
2013-02-10 11:51:00,43.7,8.3,30.40,NNE,18,4.0,4.0,23,0.00,,,0.00,VWS V14.00,2013-02-10 16:51:00,
2013-02-10 11:56:00,44.1,5.6,30.40,North,5,0.0,0.0,20,0.00,,,0.00,VWS V14.00,2013-02-10 16:56:00,
2013-02-10 12:01:00,44.6,6.0,30.40,North,9,3.1,3.1,20,0.00,,,0.00,VWS V14.00,2013-02-10 17:01:00,
2013-02-10 12:06:00,44.6,6.0,30.40,North,0,0.0,0.0,20,0.00,,,0.00,VWS V14.00,2013-02-10 17:06:00,
2013-02-10 12:11:00,44.8,6.2,30.40,North,3,3.6,4.0,20,0.00,,,0.00,VWS V14.00,2013-02-10 17:11:00,
2013-02-10 12:16:00,45.0,6.3,30.40,North,0,0.0,0.0,20,0.00,,,0.00,VWS V14.00,2013-02-10 17:16:00,
2013-02-10 12:21:00,45.0,6.3,30.40,North,1,3.1,3.6,20,0.00,,,0.00,VWS V14.00,2013-02-10 17:21:00,
2013-02-10 12:26:00,45.1,6.5,30.40,North,353,0.0,4.0,20,0.00,,,0.00,VWS V14.00,2013-02-10 17:26:00,
2013-02-10 12:31:00,45.5,6.8,30.40,NNE,30,3.1,4.0,20,0.00,,,0.00,VWS V14.00,2013-02-10 17:31:00,
2013-02-10 12:36:00,46.2,7.4,30.37,North,353,0.0,2.2,20,0.00,,,0.00,VWS V14.00,2013-02-10 17:36:00,
2013-02-10 12:41:00,46.6,6.5,30.37,North,2,2.2,4.9,19,0.00,,,0.00,VWS V14.00,2013-02-10 17:41:00,
2013-02-10 12:46:00,46.6,6.5,30.37,North,353,2.2,4.0,19,0.00,,,0.00,VWS V14.00,2013-02-10 17:46:00,
2013-02-10 12:51:00,46.6,6.5,30.35,North,350,3.6,3.6,19,0.00,,,0.00,VWS V14.00,2013-02-10 17:51:00,
2013-02-10 12:56:00,46.8,6.7,30.35,NNE,16,0.0,0.0,19,0.00,,,0.00,VWS V14.00,2013-02-10 17:56:00,
2013-02-10 13:01:00,47.3,7.1,30.35,NNE,18,3.1,4.0,19,0.00,,,0.00,VWS V14.00,2013-02-10 18:01:00,
2013-02-10 13:06:00,47.3,7.1,30.32,NW,307,0.0,2.2,19,0.00,,,0.00,VWS V14.00,2013-02-10 18:06:00,
2013-02-10 13:11:00,47.8,7.6,30.32,NNW,345,0.0,0.0,19,0.00,,,0.00,VWS V14.00,2013-02-10 18:11:00,
2013-02-10 13:16:00,47.8,7.6,30.32,NNW,341,0.0,0.0,19,0.00,,,0.00,VWS V14.00,2013-02-10 18:16:00,
2013-02-10 13:21:00,48.0,5.3,30.32,NNW,331,3.1,3.1,17,0.00,,,0.00,VWS V14.00,2013-02-10 18:21:00,
2013-02-10 13:26:00,48.2,4.1,30.32,ESE,109,3.6,4.0,16,0.00,,,0.00,VWS V14.00,2013-02-10 18:26:00,
2013-02-10 13:31:00,48.0,5.3,30.32,North,353,3.6,5.8,17,0.00,,,0.00,VWS V14.00,2013-02-10 18:31:00,
2013-02-10 13:36:00,48.6,4.4,30.32,North,1,3.6,3.6,16,0.00,,,0.00,VWS V14.00,2013-02-10 18:36:00,
2013-02-10 13:41:00,48.9,4.7,30.32,NE,48,3.6,3.6,16,0.00,,,0.00,VWS V14.00,2013-02-10 18:41:00,
2013-02-10 13:46:00,48.9,4.7,30.32,ENE,70,2.7,2.7,16,0.00,,,0.00,VWS V14.00,2013-02-10 18:46:00,
2013-02-10 13:51:00,49.1,4.9,30.32,North,8,0.0,0.0,16,0.00,,,0.00,VWS V14.00,2013-02-10 18:51:00,
2013-02-10 13:57:00,49.5,5.2,30.32,NNE,19,3.1,3.1,16,0.00,,,0.00,VWS V14.00,2013-02-10 18:57:00,
2013-02-10 14:02:00,49.3,5.0,30.32,SSE,147,2.2,2.7,16,0.00,,,0.00,VWS V14.00,2013-02-10 19:02:00,
2013-02-10 14:07:00,49.5,5.2,30.29,NNW,333,3.1,3.1,16,0.00,,,0.00,VWS V14.00,2013-02-10 19:07:00,
2013-02-10 14:12:00,49.6,5.3,30.29,NNW,340,2.2,2.2,16,0.00,,,0.00,VWS V14.00,2013-02-10 19:12:00,
2013-02-10 14:17:00,50.0,5.6,30.29,NNW,337,4.0,4.0,16,0.00,,,0.00,VWS V14.00,2013-02-10 19:17:00,
2013-02-10 14:22:00,50.2,5.7,30.29,North,3,3.6,3.6,16,0.00,,,0.00,VWS V14.00,2013-02-10 19:22:00,
2013-02-10 14:27:00,50.4,5.9,30.29,NW,326,2.7,3.6,16,0.00,,,0.00,VWS V14.00,2013-02-10 19:27:00,
2013-02-10 14:32:00,50.4,5.9,30.29,NNE,15,0.0,0.0,16,0.00,,,0.00,VWS V14.00,2013-02-10 19:32:00,
2013-02-10 14:37:00,50.5,6.0,30.29,North,5,3.6,3.6,16,0.00,,,0.00,VWS V14.00,2013-02-10 19:37:00,
2013-02-10 14:42:00,50.5,6.0,30.29,North,0,3.1,3.1,16,0.00,,,0.00,VWS V14.00,2013-02-10 19:42:00,
2013-02-10 14:47:00,50.4,5.9,30.29,North,3,3.6,3.6,16,0.00,,,0.00,VWS V14.00,2013-02-10 19:47:00,
2013-02-10 14:52:00,50.4,5.9,30.26,NNW,339,0.0,0.0,16,0.00,,,0.00,VWS V14.00,2013-02-10 19:52:00,
2013-02-10 14:57:00,50.5,6.0,30.26,NNE,21,4.0,4.9,16,0.00,,,0.00,VWS V14.00,2013-02-10 19:57:00,
2013-02-10 15:02:00,50.5,6.0,30.26,North,0,4.0,4.0,16,0.00,,,0.00,VWS V14.00,2013-02-10 20:02:00,
2013-02-10 15:07:00,50.4,5.9,30.26,NNE,17,4.0,4.0,16,0.00,,,0.00,VWS V14.00,2013-02-10 20:07:00,
2013-02-10 15:12:00,50.4,5.9,30.26,NW,315,3.6,4.9,16,0.00,,,0.00,VWS V14.00,2013-02-10 20:12:00,
2013-02-10 15:17:00,50.4,5.9,30.26,North,357,3.1,3.1,16,0.00,,,0.00,VWS V14.00,2013-02-10 20:17:00,
2013-02-10 15:22:00,50.4,5.9,30.26,NNW,331,2.7,4.9,16,0.00,,,0.00,VWS V14.00,2013-02-10 20:22:00,
2013-02-10 15:27:00,50.4,5.9,30.26,North,0,3.1,4.0,16,0.00,,,0.00,VWS V14.00,2013-02-10 20:27:00,
2013-02-10 15:32:00,50.2,5.7,30.26,North,0,4.0,4.0,16,0.00,,,0.00,VWS V14.00,2013-02-10 20:32:00,
2013-02-10 15:37:00,50.4,5.9,30.26,North,8,3.6,3.6,16,0.00,,,0.00,VWS V14.00,2013-02-10 20:37:00,
2013-02-10 15:42:00,50.4,5.9,30.26,NNW,346,3.1,4.0,16,0.00,,,0.00,VWS V14.00,2013-02-10 20:42:00,
2013-02-10 15:47:00,50.2,5.7,30.26,North,357,0.0,3.1,16,0.00,,,0.00,VWS V14.00,2013-02-10 20:47:00,
2013-02-10 15:52:00,50.0,5.6,30.26,North,10,3.1,4.0,16,0.00,,,0.00,VWS V14.00,2013-02-10 20:52:00,
2013-02-10 15:57:00,50.2,5.7,30.26,North,357,3.6,4.0,16,0.00,,,0.00,VWS V14.00,2013-02-10 20:57:00,
2013-02-10 16:02:00,50.2,5.7,30.26,North,7,3.1,4.0,16,0.00,,,0.00,VWS V14.00,2013-02-10 21:02:00,
2013-02-10 16:07:00,50.2,5.7,30.26,North,357,2.7,3.6,16,0.00,,,0.00,VWS V14.00,2013-02-10 21:07:00,
2013-02-10 16:12:00,50.0,5.6,30.26,North,7,3.6,3.6,16,0.00,,,0.00,VWS V14.00,2013-02-10 21:12:00,
2013-02-10 16:17:00,49.8,5.4,30.26,North,0,3.6,4.0,16,0.00,,,0.00,VWS V14.00,2013-02-10 21:17:00,
2013-02-10 16:22:00,49.5,5.2,30.26,NNE,13,3.1,3.6,16,0.00,,,0.00,VWS V14.00,2013-02-10 21:22:00,
2013-02-10 16:27:00,49.3,5.0,30.26,WNW,299,2.7,2.7,16,0.00,,,0.00,VWS V14.00,2013-02-10 21:27:00,
2013-02-10 16:33:00,49.3,5.0,30.26,NNW,337,2.7,2.7,16,0.00,,,0.00,VWS V14.00,2013-02-10 21:33:00,
2013-02-10 16:38:00,49.1,4.9,30.26,North,5,4.0,4.0,16,0.00,,,0.00,VWS V14.00,2013-02-10 21:38:00,
2013-02-10 16:43:00,48.7,4.6,30.26,North,353,3.6,3.6,16,0.00,,,0.00,VWS V14.00,2013-02-10 21:43:00,
2013-02-10 16:48:00,48.6,4.4,30.26,North,0,4.0,4.0,16,0.00,,,0.00,VWS V14.00,2013-02-10 21:48:00,
2013-02-10 16:53:00,48.2,4.1,30.26,North,357,2.7,3.1,16,0.00,,,0.00,VWS V14.00,2013-02-10 21:53:00,
2013-02-10 16:58:00,48.0,5.3,30.26,North,0,2.7,2.7,17,0.00,,,0.00,VWS V14.00,2013-02-10 21:58:00,
2013-02-10 17:03:00,47.8,5.2,30.26,North,357,2.2,2.7,17,0.00,,,0.00,VWS V14.00,2013-02-10 22:03:00,
2013-02-10 17:08:00,47.8,5.2,30.26,North,1,2.7,3.6,17,0.00,,,0.00,VWS V14.00,2013-02-10 22:08:00,
2013-02-10 17:13:00,47.8,5.2,30.26,North,357,3.6,3.6,17,0.00,,,0.00,VWS V14.00,2013-02-10 22:13:00,
2013-02-10 17:18:00,47.7,5.0,30.26,North,357,3.1,3.1,17,0.00,,,0.00,VWS V14.00,2013-02-10 22:18:00,
2013-02-10 17:23:00,47.5,4.8,30.26,North,357,4.0,4.5,17,0.00,,,0.00,VWS V14.00,2013-02-10 22:23:00,
2013-02-10 17:28:00,47.7,5.0,30.26,North,5,2.7,4.0,17,0.00,,,0.00,VWS V14.00,2013-02-10 22:28:00,
2013-02-10 17:33:00,47.5,4.8,30.26,NNW,337,3.6,3.6,17,0.00,,,0.00,VWS V14.00,2013-02-10 22:33:00,
2013-02-10 17:38:00,47.3,4.7,30.26,North,357,3.1,3.1,17,0.00,,,0.00,VWS V14.00,2013-02-10 22:38:00,
2013-02-10 17:43:00,47.1,4.6,30.26,North,357,2.2,3.1,17,0.00,,,0.00,VWS V14.00,2013-02-10 22:43:00,
2013-02-10 17:48:00,47.1,4.6,30.23,North,0,2.7,2.7,17,0.00,,,0.00,VWS V14.00,2013-02-10 22:48:00,
2013-02-10 17:53:00,46.9,4.4,30.23,North,350,0.0,2.2,17,0.00,,,0.00,VWS V14.00,2013-02-10 22:53:00,
2013-02-10 17:58:00,46.9,4.4,30.23,NNW,348,0.0,0.0,17,0.00,,,0.00,VWS V14.00,2013-02-10 22:58:00,
2013-02-10 18:03:00,46.9,6.8,30.23,North,353,0.0,3.6,19,0.00,,,0.00,VWS V14.00,2013-02-10 23:03:00,
2013-02-10 18:08:00,46.8,4.3,30.23,North,353,0.0,0.0,17,0.00,,,0.00,VWS V14.00,2013-02-10 23:08:00,
2013-02-10 18:13:00,46.6,4.1,30.23,North,8,0.0,2.7,17,0.00,,,0.00,VWS V14.00,2013-02-10 23:13:00,
2013-02-10 18:18:00,46.6,6.5,30.23,North,357,2.7,3.1,19,0.00,,,0.00,VWS V14.00,2013-02-10 23:18:00,
2013-02-10 18:23:00,46.4,6.4,30.23,North,357,0.0,0.0,19,0.00,,,0.00,VWS V14.00,2013-02-10 23:23:00,
2013-02-10 18:28:00,46.2,7.4,30.23,North,0,0.0,0.0,20,0.00,,,0.00,VWS V14.00,2013-02-10 23:28:00,
2013-02-10 18:33:00,46.0,7.2,30.26,North,0,0.0,0.0,20,0.00,,,0.00,VWS V14.00,2013-02-10 23:33:00,
2013-02-10 18:38:00,45.9,7.1,30.26,North,357,0.0,0.0,20,0.00,,,0.00,VWS V14.00,2013-02-10 23:38:00,
2013-02-10 18:43:00,45.9,7.1,30.26,North,357,0.0,0.0,20,0.00,,,0.00,VWS V14.00,2013-02-10 23:43:00,
2013-02-10 18:48:00,45.7,6.9,30.26,North,357,0.0,0.0,20,0.00,,,0.00,VWS V14.00,2013-02-10 23:48:00,
2013-02-10 18:53:00,45.7,6.9,30.26,North,357,0.0,0.0,20,0.00,,,0.00,VWS V14.00,2013-02-10 23:53:00,
2013-02-10 18:58:00,45.5,6.8,30.26,North,357,0.0,0.0,20,0.00,,,0.00,VWS V14.00,2013-02-10 23:58:00,
2013-02-10 19:04:00,45.5,6.8,30.26,North,357,0.0,0.0,20,0.00,,,0.00,VWS V14.00,2013-02-11 00:04:00,
2013-02-10 19:09:00,45.5,6.8,30.26,North,357,0.0,0.0,20,0.00,,,0.00,VWS V14.00,2013-02-11 00:09:00,
2013-02-10 19:14:00,45.5,6.8,30.26,North,357,0.0,0.0,20,0.00,,,0.00,VWS V14.00,2013-02-11 00:14:00,
2013-02-10 19:19:00,45.5,6.8,30.26,North,357,0.0,0.0,20,0.00,,,0.00,VWS V14.00,2013-02-11 00:19:00,
2013-02-10 19:24:00,45.5,6.8,30.26,North,357,0.0,0.0,20,0.00,,,0.00,VWS V14.00,2013-02-11 00:24:00,
2013-02-10 19:29:00,45.5,6.8,30.26,North,357,0.0,0.0,20,0.00,,,0.00,VWS V14.00,2013-02-11 00:29:00,
2013-02-10 19:34:00,45.5,6.8,30.26,North,357,0.0,0.0,20,0.00,,,0.00,VWS V14.00,2013-02-11 00:34:00,
2013-02-10 19:39:00,45.5,6.8,30.26,NW,318,2.2,2.7,20,0.00,,,0.00,VWS V14.00,2013-02-11 00:39:00,
2013-02-10 19:44:00,45.5,6.8,30.26,North,357,0.0,0.0,20,0.00,,,0.00,VWS V14.00,2013-02-11 00:44:00,
2013-02-10 19:49:00,45.5,6.8,30.26,NNW,345,0.0,0.0,20,0.00,,,0.00,VWS V14.00,2013-02-11 00:49:00,
2013-02-10 19:54:00,45.3,6.6,30.26,North,357,2.2,2.2,20,0.00,,,0.00,VWS V14.00,2013-02-11 00:54:00,
2013-02-10 19:59:00,45.3,6.6,30.26,North,0,0.0,0.0,20,0.00,,,0.00,VWS V14.00,2013-02-11 00:59:00,
2013-02-10 20:04:00,45.3,6.6,30.26,North,0,0.0,0.0,20,0.00,,,0.00,VWS V14.00,2013-02-11 01:04:00,
2013-02-10 20:09:00,45.3,6.6,30.26,North,0,0.0,0.0,20,0.00,,,0.00,VWS V14.00,2013-02-11 01:09:00,
2013-02-10 20:14:00,45.3,6.6,30.26,North,0,0.0,0.0,20,0.00,,,0.00,VWS V14.00,2013-02-11 01:14:00,
2013-02-10 20:19:00,45.3,6.6,30.26,North,0,0.0,0.0,20,0.00,,,0.00,VWS V14.00,2013-02-11 01:19:00,
2013-02-10 20:24:00,45.3,6.6,30.26,NNE,17,0.0,0.0,20,0.00,,,0.00,VWS V14.00,2013-02-11 01:24:00,
2013-02-10 20:29:00,45.3,6.6,30.26,North,3,0.0,0.0,20,0.00,,,0.00,VWS V14.00,2013-02-11 01:29:00,
2013-02-10 20:34:00,45.1,6.5,30.26,North,3,0.0,0.0,20,0.00,,,0.00,VWS V14.00,2013-02-11 01:34:00,
2013-02-10 20:39:00,45.1,6.5,30.26,North,5,0.0,0.0,20,0.00,,,0.00,VWS V14.00,2013-02-11 01:39:00,
2013-02-10 20:44:00,45.3,6.6,30.26,North,5,0.0,0.0,20,0.00,,,0.00,VWS V14.00,2013-02-11 01:44:00,
2013-02-10 20:49:00,45.3,6.6,30.26,North,6,0.0,0.0,20,0.00,,,0.00,VWS V14.00,2013-02-11 01:49:00,
2013-02-10 20:54:00,45.5,6.8,30.26,North,5,0.0,0.0,20,0.00,,,0.00,VWS V14.00,2013-02-11 01:54:00,
2013-02-10 20:59:00,45.5,6.8,30.26,North,3,0.0,0.0,20,0.00,,,0.00,VWS V14.00,2013-02-11 01:59:00,
2013-02-10 21:04:00,45.5,6.8,30.26,NNE,20,0.0,0.0,20,0.00,,,0.00,VWS V14.00,2013-02-11 02:04:00,
2013-02-10 21:09:00,45.5,6.8,30.26,NNE,13,3.1,3.1,20,0.00,,,0.00,VWS V14.00,2013-02-11 02:09:00,
2013-02-10 21:14:00,45.3,8.7,30.26,North,7,0.0,0.0,22,0.00,,,0.00,VWS V14.00,2013-02-11 02:14:00,
2013-02-10 21:19:00,44.8,8.3,30.23,North,7,0.0,0.0,22,0.00,,,0.00,VWS V14.00,2013-02-11 02:19:00,
2013-02-10 21:24:00,44.2,13.2,30.23,North,3,0.0,0.0,28,0.00,,,0.00,VWS V14.00,2013-02-11 02:24:00,
2013-02-10 21:29:00,43.5,17.7,30.23,ENE,60,0.0,0.0,35,0.00,,,0.00,VWS V14.00,2013-02-11 02:29:00,
2013-02-10 21:34:00,42.6,19.4,30.26,ENE,60,0.0,0.0,39,0.00,,,0.00,VWS V14.00,2013-02-11 02:34:00,
2013-02-10 21:40:00,41.9,19.4,30.26,ENE,60,0.0,0.0,40,0.00,,,0.00,VWS V14.00,2013-02-11 02:40:00,
2013-02-10 21:45:00,41.2,20.4,30.26,ENE,60,0.0,0.0,43,0.00,,,0.00,VWS V14.00,2013-02-11 02:45:00,
2013-02-10 21:50:00,40.8,20.1,30.26,ENE,60,0.0,0.0,43,0.00,,,0.00,VWS V14.00,2013-02-11 02:50:00,
2013-02-10 21:55:00,40.5,21.3,30.26,ENE,58,0.0,0.0,46,0.00,,,0.00,VWS V14.00,2013-02-11 02:55:00,
2013-02-10 22:00:00,40.3,22.2,30.26,ENE,58,0.0,0.0,48,0.00,,,0.00,VWS V14.00,2013-02-11 03:00:00,
2013-02-10 22:05:00,40.3,23.1,30.26,NE,52,0.0,0.0,50,0.04,,,0.04,VWS V14.00,2013-02-11 03:05:00,
2013-02-10 22:10:00,40.3,23.6,30.26,North,357,3.1,3.1,51,0.04,,,0.04,VWS V14.00,2013-02-11 03:10:00,
2013-02-10 22:15:00,40.5,23.8,30.26,North,353,0.0,0.0,51,0.04,,,0.04,VWS V14.00,2013-02-11 03:15:00,
2013-02-10 22:20:00,40.5,23.8,30.23,North,353,0.0,0.0,51,0.04,,,0.04,VWS V14.00,2013-02-11 03:20:00,
2013-02-10 22:25:00,40.3,23.6,30.23,North,353,0.0,0.0,51,0.04,,,0.04,VWS V14.00,2013-02-11 03:25:00,
2013-02-10 22:30:00,40.5,23.3,30.23,North,353,0.0,0.0,50,0.04,,,0.04,VWS V14.00,2013-02-11 03:30:00,
2013-02-10 22:35:00,40.5,23.3,30.20,North,353,0.0,0.0,50,0.04,,,0.04,VWS V14.00,2013-02-11 03:35:00,
2013-02-10 22:40:00,40.3,23.1,30.20,North,353,0.0,0.0,50,0.04,,,0.04,VWS V14.00,2013-02-11 03:40:00,
2013-02-10 22:45:00,40.3,23.6,30.20,North,0,0.0,0.0,51,0.04,,,0.04,VWS V14.00,2013-02-11 03:45:00,
2013-02-10 22:50:00,39.9,23.7,30.20,North,0,0.0,0.0,52,0.04,,,0.04,VWS V14.00,2013-02-11 03:50:00,
2013-02-10 22:55:00,39.6,23.4,30.20,North,0,0.0,0.0,52,0.04,,,0.04,VWS V14.00,2013-02-11 03:55:00,
2013-02-10 23:00:00,39.6,23.4,30.20,North,0,0.0,0.0,52,0.04,,,0.04,VWS V14.00,2013-02-11 04:00:00,
2013-02-10 23:05:00,39.6,23.4,30.20,North,0,0.0,0.0,52,0.00,,,0.04,VWS V14.00,2013-02-11 04:05:00,
2013-02-10 23:10:00,39.7,24.0,30.20,North,0,0.0,0.0,53,0.00,,,0.04,VWS V14.00,2013-02-11 04:10:00,
2013-02-10 23:15:00,39.7,24.0,30.20,North,0,0.0,0.0,53,0.00,,,0.04,VWS V14.00,2013-02-11 04:15:00,
2013-02-10 23:20:00,39.7,24.0,30.20,North,0,0.0,0.0,53,0.00,,,0.04,VWS V14.00,2013-02-11 04:20:00,
2013-02-10 23:25:00,39.7,24.5,30.20,North,0,0.0,0.0,54,0.00,,,0.04,VWS V14.00,2013-02-11 04:25:00,
2013-02-10 23:30:00,39.7,24.9,30.20,North,0,0.0,0.0,55,0.00,,,0.04,VWS V14.00,2013-02-11 04:30:00,
2013-02-10 23:35:00,39.7,24.9,30.20,North,0,0.0,0.0,55,0.00,,,0.04,VWS V14.00,2013-02-11 04:35:00,
2013-02-10 23:40:00,39.9,25.1,30.20,North,0,0.0,0.0,55,0.00,,,0.04,VWS V14.00,2013-02-11 04:40:00,
2013-02-10 23:45:00,39.9,25.9,30.20,SSE,150,0.0,0.0,57,0.00,,,0.04,VWS V14.00,2013-02-11 04:45:00,
2013-02-10 23:50:00,39.7,26.6,30.17,SSE,150,0.0,0.0,59,0.00,,,0.04,VWS V14.00,2013-02-11 04:50:00,
2013-02-10 23:55:00,39.9,26.8,30.17,SSE,150,0.0,0.0,59,0.00,,,0.04,VWS V14.00,2013-02-11 04:55:00,